| time (UTC) | temp F | wind direction | speed knots | gust knots | rain 1hr in | rain 24hr in | rain mn in | humidity % | barometer mb |
| 20260508154354 | 61 | 235 | 7.0 | 11.3 | 0.00 | 0.00 | 0.00 | 57 | 1015.9 |
| 20260508153353 | 60 | 253 | 5.2 | 7.0 | 0.00 | 0.00 | 0.00 | 56 | 1016.1 |
| 20260508152354 | 59 | 229 | 5.2 | 8.7 | 0.00 | 0.00 | 0.00 | 56 | 1016.1 |
| 20260508151355 | 59 | 263 | 7.0 | 11.3 | 0.00 | 0.00 | 0.00 | 58 | 1016.3 |
| 20260508150356 | 58 | 225 | 6.1 | 8.7 | 0.00 | 0.00 | 0.00 | 58 | 1016.5 |
| 20260508145356 | 58 | 245 | 7.8 | 14.8 | 0.00 | 0.00 | 0.00 | 57 | 1016.6 |
| 20260508143454 | 57 | 226 | 7.0 | 9.6 | 0.00 | 0.00 | 0.00 | 59 | 1016.5 |
| 20260508142455 | 56 | 230 | 7.0 | 9.6 | 0.00 | 0.00 | 0.00 | 57 | 1016.5 |
| 20260508141453 | 57 | 227 | 8.7 | 10.4 | 0.00 | 0.00 | 0.00 | 58 | 1016.5 |
| 20260508140455 | 56 | 244 | 6.1 | 10.4 | 0.00 | 0.00 | 0.00 | 59 | 1016.6 |
| 20260508135554 | 56 | 218 | 7.8 | 10.4 | 0.00 | 0.00 | 0.00 | 59 | 1016.6 |
| 20260508134554 | 56 | 230 | 7.8 | 11.3 | 0.00 | 0.00 | 0.00 | 61 | 1016.6 |
| 20260508132554 | 55 | 246 | 6.1 | 8.7 | 0.00 | 0.00 | 0.00 | 63 | 1016.6 |
| 20260508131554 | 54 | 226 | 7.8 | 10.4 | 0.00 | 0.00 | 0.00 | 65 | 1016.6 |
| 20260508131454 | 54 | 232 | 7.8 | 10.4 | 0.00 | 0.00 | 0.00 | 65 | 1016.6 |
| 20260508130453 | 53 | 233 | 7.8 | 14.8 | 0.00 | 0.00 | 0.00 | 67 | 1016.6 |
| 20260508123552 | 50 | 225 | 1.7 | 6.1 | 0.00 | 0.00 | 0.00 | 72 | 1016.6 |
| 20260508122555 | 49 | 204 | 2.6 | 3.5 | 0.00 | 0.00 | 0.00 | 73 | 1016.6 |
| 20260508121553 | 48 | 178 | 2.6 | 4.3 | 0.00 | 0.00 | 0.00 | 74 | 1016.5 |
| 20260508121454 | 48 | 197 | 1.7 | 4.3 | 0.00 | 0.00 | 0.00 | 75 | 1016.4 |
| 20260508120553 | 47 | 180 | 1.7 | 2.6 | 0.00 | 0.00 | 0.00 | 77 | 1016.5 |
| 20260508120453 | 47 | 190 | 1.7 | 4.3 | 0.00 | 0.00 | 0.00 | 77 | 1016.5 |
| 20260508115454 | 46 | 225 | 1.7 | 3.5 | 0.00 | 0.00 | 0.00 | 78 | 1016.4 |
| 20260508114454 | 45 | 211 | 2.6 | 3.5 | 0.00 | 0.00 | 0.00 | 81 | 1016.4 |
| 20260508113453 | 45 | 209 | 1.7 | 2.6 | 0.00 | 0.00 | 0.00 | 84 | 1016.3 |
| 20260508112455 | 43 | 196 | 0.0 | 0.9 | 0.00 | 0.00 | 0.00 | 84 | 1016.1 |
| 20260508112354 | 43 | 194 | 0.0 | 0.0 | 0.00 | 0.00 | 0.00 | 84 | 1016.1 |
| 20260508111355 | 42 | 207 | 0.0 | 1.7 | 0.00 | 0.00 | 0.00 | 84 | 1015.8 |
| 20260508110355 | 42 | 180 | 0.0 | 0.0 | 0.00 | 0.00 | 0.00 | 86 | 1015.7 |
| 20260508105354 | 41 | 181 | 0.9 | 1.7 | 0.00 | 0.00 | 0.00 | 87 | 1015.5 |
| 20260508104452 | 40 | 180 | 0.0 | 0.9 | 0.00 | 0.00 | 0.00 | 89 | 1015.6 |
| 20260508103454 | 40 | 180 | 0.0 | 0.0 | 0.00 | 0.00 | 0.00 | 89 | 1015.5 |
| 20260508102456 | 39 | 180 | 0.0 | 0.0 | 0.00 | 0.00 | 0.00 | 91 | 1015.4 |
| 20260508101554 | 39 | 180 | 0.0 | 0.0 | 0.00 | 0.00 | 0.00 | 90 | 1015.2 |
| 20260508095554 | 38 | 180 | 0.0 | 0.0 | 0.00 | 0.00 | 0.00 | 93 | 1015.0 |
| 20260508094554 | 38 | 49 | 0.0 | 0.0 | 0.00 | 0.00 | 0.00 | 92 | 1015.2 |
| 20260508093554 | 39 | 45 | 0.0 | 0.0 | 0.00 | 0.00 | 0.00 | 91 | 1015.3 |
| 20260508092555 | 39 | 45 | 0.0 | 0.0 | 0.00 | 0.00 | 0.00 | 91 | 1015.3 |
| 20260508091654 | 39 | 45 | 0.0 | 0.0 | 0.00 | 0.00 | 0.00 | 90 | 1015.3 |
| 20260508090709 | 39 | 45 | 0.0 | 0.0 | 0.00 | 0.00 | 0.00 | 90 | 1015.4 |
| 20260508084652 | 40 | 45 | 0.0 | 0.0 | 0.00 | 0.00 | 0.00 | 89 | 1015.3 |
| 20260508083655 | 40 | 45 | 0.0 | 0.0 | 0.00 | 0.00 | 0.00 | 88 | 1015.4 |
| 20260508081753 | 41 | 45 | 0.0 | 0.0 | 0.00 | 0.00 | 0.00 | 84 | 1015.4 |
| 20260508080753 | 42 | 45 | 0.0 | 0.0 | 0.00 | 0.00 | 0.00 | 82 | 1015.4 |
| 20260508075754 | 43 | 45 | 0.9 | 1.7 | 0.00 | 0.00 | 0.00 | 79 | 1015.5 |
| 20260508074811 | 44 | 135 | 0.0 | 0.0 | 0.00 | 0.00 | 0.00 | 78 | 1015.6 |
| 20260508073854 | 45 | 67 | 0.0 | 0.9 | 0.00 | 0.00 | 0.00 | 75 | 1015.8 |
| 20260508072909 | 46 | 360 | 0.0 | 0.0 | 0.00 | 0.00 | 0.00 | 75 | 1015.7 |
| 20260508071954 | 46 | 270 | 0.0 | 0.0 | 0.00 | 0.00 | 0.00 | 75 | 1015.8 |
| 20260508071052 | 46 | 135 | 1.7 | 2.6 | 0.00 | 0.00 | 0.00 | 75 | 1015.7 |
| 20260508070052 | 47 | 360 | 0.0 | 0.0 | 0.00 | 0.00 | 0.00 | 73 | 1016.3 |
| 20260508065053 | 47 | 180 | 0.0 | 0.0 | 0.00 | 0.00 | 0.00 | 72 | 1015.9 |
| 20260508064054 | 47 | 180 | 0.0 | 0.0 | 0.00 | 0.00 | 0.00 | 70 | 1015.8 |
| 20260508063153 | 47 | 186 | 1.7 | 2.6 | 0.00 | 0.00 | 0.00 | 70 | 1015.7 |
| 20260508062155 | 47 | 210 | 1.7 | 2.6 | 0.00 | 0.00 | 0.00 | 70 | 1015.8 |
| 20260508062053 | 47 | 225 | 0.9 | 1.7 | 0.00 | 0.00 | 0.00 | 70 | 1015.8 |
| 20260508061054 | 47 | 209 | 3.5 | 4.3 | 0.00 | 0.00 | 0.00 | 70 | 1015.9 |
| 20260508060052 | 47 | 220 | 1.7 | 3.5 | 0.00 | 0.00 | 0.00 | 72 | 1015.8 |
| 20260508054054 | 47 | 180 | 2.6 | 3.5 | 0.00 | 0.00 | 0.00 | 71 | 1015.8 |
| 20260508053152 | 46 | 184 | 1.7 | 3.5 | 0.00 | 0.00 | 0.00 | 70 | 1015.9 |
| 20260508052154 | 47 | 180 | 0.9 | 1.7 | 0.00 | 0.00 | 0.00 | 72 | 1015.9 |
| 20260508050208 | 46 | 204 | 2.6 | 3.5 | 0.00 | 0.00 | 0.00 | 74 | 1016.1 |
| 20260508044253 | 44 | 180 | 0.0 | 0.9 | 0.00 | 0.00 | 0.00 | 80 | 1016.0 |
| 20260508043253 | 44 | 188 | 0.9 | 1.7 | 0.00 | 0.00 | 0.00 | 83 | 1016.0 |
| 20260508043154 | 44 | 225 | 0.9 | 1.7 | 0.00 | 0.00 | 0.00 | 84 | 1016.0 |
| 20260508041154 | 42 | 225 | 0.0 | 0.0 | 0.00 | 0.00 | 0.00 | 87 | 1016.0 |
| 20260508040153 | 42 | 225 | 0.0 | 0.9 | 0.00 | 0.00 | 0.00 | 87 | 1015.8 |
| 20260508035244 | 42 | 225 | 0.0 | 0.0 | 0.00 | 0.00 | 0.00 | 86 | 1015.8 |
| 20260508034243 | 42 | 225 | 0.0 | 0.0 | 0.00 | 0.00 | 0.00 | 85 | 1015.8 |
| 20260508033245 | 42 | 225 | 0.0 | 0.0 | 0.00 | 0.00 | 0.00 | 86 | 1015.6 |
| 20260508031245 | 43 | 225 | 0.0 | 0.0 | 0.00 | 0.00 | 0.00 | 86 | 1015.9 |
| 20260508025247 | 43 | 225 | 0.0 | 0.0 | 0.00 | 0.00 | 0.00 | 84 | 1015.9 |
| 20260508024244 | 43 | 225 | 0.0 | 0.0 | 0.00 | 0.00 | 0.00 | 84 | 1015.9 |
| 20260508023243 | 43 | 225 | 0.0 | 0.0 | 0.00 | 0.00 | 0.00 | 81 | 1015.8 |
| 20260508022245 | 44 | 225 | 0.0 | 0.0 | 0.00 | 0.00 | 0.00 | 82 | 1015.9 |
| 20260508021246 | 44 | 225 | 0.0 | 0.0 | 0.00 | 0.00 | 0.00 | 79 | 1015.9 |
| 20260508020244 | 44 | 225 | 0.0 | 0.0 | 0.00 | 0.00 | 0.00 | 75 | 1016.0 |
| 20260508015243 | 45 | 225 | 0.0 | 0.0 | 0.00 | 0.00 | 0.00 | 75 | 1016.0 |
| 20260508014245 | 45 | 225 | 0.0 | 0.0 | 0.00 | 0.00 | 0.00 | 73 | 1016.0 |
| 20260508013344 | 46 | 225 | 0.0 | 0.0 | 0.00 | 0.00 | 0.00 | 73 | 1016.0 |
| 20260508012401 | 46 | 225 | 0.0 | 0.0 | 0.00 | 0.00 | 0.00 | 70 | 1016.0 |
| 20260508011401 | 47 | 225 | 0.0 | 0.0 | 0.00 | 0.00 | 0.00 | 65 | 1015.9 |
| 20260508010446 | 48 | 225 | 0.0 | 0.0 | 0.00 | 0.00 | 0.00 | 62 | 1015.8 |
| 20260508005444 | 49 | 225 | 0.0 | 0.0 | 0.00 | 0.00 | 0.00 | 61 | 1015.8 |
| 20260508004544 | 50 | 225 | 0.0 | 0.0 | 0.00 | 0.00 | 0.00 | 56 | 1015.8 |
| 20260508003545 | 51 | 225 | 0.0 | 0.0 | 0.00 | 0.00 | 0.00 | 52 | 1015.8 |
| 20260508001647 | 53 | 247 | 0.0 | 0.0 | 0.00 | 0.00 | 0.00 | 48 | 1015.7 |
| 20260508000646 | 54 | 303 | 0.0 | 0.9 | 0.00 | 0.00 | 0.00 | 45 | 1015.7 |
| 20260507235646 | 55 | 270 | 0.0 | 0.0 | 0.00 | 0.00 | 0.00 | 44 | 1015.6 |
| 20260507234644 | 57 | 259 | 0.0 | 1.7 | 0.00 | 0.00 | 0.00 | 42 | 1015.6 |
| 20260507233642 | 58 | 277 | 2.6 | 4.3 | 0.00 | 0.00 | 0.00 | 38 | 1015.6 |
| 20260507231645 | 62 | 270 | 0.0 | 0.9 | 0.00 | 0.00 | 0.00 | 45 | 1015.4 |
| 20260507224843 | 64 | 318 | 0.0 | 1.7 | 0.00 | 0.00 | 0.00 | 42 | 1015.6 |
| 20260507223844 | 64 | 327 | 0.9 | 3.5 | 0.00 | 0.00 | 0.00 | 42 | 1015.7 |
| 20260507221845 | 64 | 308 | 0.9 | 1.7 | 0.00 | 0.00 | 0.00 | 46 | 1015.7 |
| 20260507220845 | 61 | 265 | 4.3 | 7.0 | 0.00 | 0.00 | 0.00 | 49 | 1015.6 |
| 20260507215900 | 59 | 281 | 0.0 | 1.7 | 0.00 | 0.00 | 0.00 | 42 | 1015.7 |
| 20260507214945 | 59 | 253 | 2.6 | 6.1 | 0.00 | 0.00 | 0.00 | 39 | 1015.7 |
| 20260507214043 | 60 | 238 | 6.1 | 9.6 | 0.00 | 0.00 | 0.00 | 39 | 1015.5 |
| 20260507213043 | 62 | 258 | 3.5 | 6.1 | 0.00 | 0.00 | 0.00 | 46 | 1015.4 |
| 20260507212045 | 61 | 312 | 0.9 | 2.6 | 0.00 | 0.00 | 0.00 | 47 | 1015.4 |
| 20260507210945 | 60 | 273 | 3.5 | 7.0 | 0.00 | 0.00 | 0.00 | 48 | 1015.5 |
| 20260507203943 | 61 | 342 | 1.7 | 4.3 | 0.00 | 0.00 | 0.00 | 47 | 1015.2 |
| 20260507201044 | 61 | 267 | 4.3 | 6.1 | 0.00 | 0.00 | 0.00 | 48 | 1015.2 |
| 20260507200044 | 62 | 283 | 3.5 | 6.1 | 0.00 | 0.00 | 0.00 | 53 | 1015.4 |
| 20260507195144 | 59 | 336 | 0.0 | 1.7 | 0.00 | 0.00 | 0.00 | 46 | 1015.3 |
| 20260507194145 | 60 | 257 | 3.5 | 5.2 | 0.00 | 0.00 | 0.00 | 46 | 1015.5 |
| 20260507183144 | 59 | 231 | 1.7 | 3.5 | 0.00 | 0.00 | 0.00 | 56 | 1015.7 |
| 20260507182243 | 58 | 330 | 1.7 | 3.5 | 0.00 | 0.00 | 0.00 | 53 | 1015.9 |
| 20260507181342 | 57 | 268 | 1.7 | 3.5 | 0.00 | 0.00 | 0.00 | 54 | 1015.8 |
| 20260507180344 | 56 | 247 | 7.0 | 14.8 | 0.00 | 0.00 | 0.00 | 51 | 1015.8 |
| 20260507174443 | 57 | 358 | 0.9 | 2.6 | 0.00 | 0.00 | 0.00 | 56 | 1016.1 |
| 20260507173444 | 56 | 269 | 3.5 | 5.2 | 0.00 | 0.00 | 0.00 | 49 | 1016.1 |
| 20260507172444 | 55 | 260 | 5.2 | 8.7 | 0.00 | 0.00 | 0.00 | 50 | 1016.2 |
| 20260507171444 | 56 | 259 | 2.6 | 5.2 | 0.00 | 0.00 | 0.00 | 50 | 1016.4 |
| 20260507170444 | 56 | 295 | 1.7 | 3.5 | 0.00 | 0.00 | 0.00 | 49 | 1016.4 |
| 20260507165443 | 58 | 283 | 3.5 | 7.8 | 0.00 | 0.00 | 0.00 | 54 | 1016.5 |
| 20260507164444 | 57 | 291 | 0.9 | 2.6 | 0.00 | 0.00 | 0.00 | 54 | 1016.6 |
| 20260507163445 | 57 | 312 | 0.9 | 1.7 | 0.00 | 0.00 | 0.00 | 55 | 1016.5 |
| 20260507162446 | 55 | 323 | 0.9 | 2.6 | 0.00 | 0.00 | 0.00 | 50 | 1016.6 |
| 20260507161543 | 56 | 276 | 2.6 | 5.2 | 0.00 | 0.00 | 0.00 | 54 | 1016.6 |
| 20260507160545 | 57 | 288 | 2.6 | 4.3 | 0.00 | 0.00 | 0.00 | 55 | 1016.6 |
| 20260507160444 | 57 | 258 | 5.2 | 7.0 | 0.00 | 0.00 | 0.00 | 56 | 1016.6 |
| 20260507160343 | 57 | 274 | 3.5 | 7.0 | 0.00 | 0.00 | 0.00 | 56 | 1016.6 |
| 20260507155344 | 55 | 306 | 0.9 | 3.5 | 0.00 | 0.00 | 0.00 | 52 | 1016.4 |